Regional Weather Roundup
Issued by NWS Goodland, KS

Home | Current Version | Previous Version | Text Only | Print | Product List | Glossary Off
Versions: 1 2 3 4 5 6 7 8 9 10 11 12 13 14 15 16 17 18 19 20 21 22 23 24 25 26 27 28 29 30 31 32 33 34 35 36 37 38 39 40 41 42 43 44 45 46 47 48 49 50

000
ASUS43 KGLD 221559
RWRGLD

GOODLAND FORECAST AREA HOURLY WEATHER ROUNDUP
NATIONAL WEATHER SERVICE GOODLAND KS
900 AM MST SUN JAN 22 2017

...OFFICIAL OBSERVATIONS...

CITY           SKY/WX    TMP DP  RH WIND       PRES   REMARKS
GOODLAND KS    SUNNY     35  27  72 NW17      29.89R
HILL CITY KS   SUNNY     39  32  76 N17       29.86R
IMPERIAL NEB   SUNNY     34  26  72 N15       29.88R
MCCOOK NEB     SUNNY     33  29  85 NW12      29.87R
AKRON CO       CLOUDY    31  22  69 W8        29.91R
BURLINGTON CO  SUNNY     35  27  72 NW16      29.90R
LIMON CO       SUNNY     33  24  69 N14       29.91R
$$

...UNOFFICIAL OBSERVATIONS...

CITY           SKY/WX    TMP DP  RH WIND       PRES   REMARKS
LENORA KS        N/A     36  32  85 NW9         N/A
NORTON KS      SUNNY     36  27  69 NW15      29.84R
SHARON SPRINGS   N/A     37  30  75 NW17G26     N/A
TRENTON NEB      N/A     34  32  92 NW9         N/A
KIT CARSON CO    N/A     36  27  71 MISG        N/A
YUMA CO        FAIR      32  23  69 NW14      29.91R
$$



USA.gov is the U.S. government's official web portal to all federal, state and local government web resources and services.